Regional Weather Roundup
Issued by NWS Green Bay, WI

Home | Current Version | Previous Version | Text Only | Print | Product List | Glossary On
Versions: 1 2 3 4 5 6 7 8 9 10 11 12 13 14 15 16 17 18 19 20 21 22 23 24 25 26 27 28 29 30 31 32 33 34 35 36 37 38 39 40 41 42 43 44 45 46 47 48 49 50
000
ASUS43 KGRB 210810
RWRGRB

NORTH-CENTRAL AND NORTHEAST WISCONSIN REGIONAL WEATHER ROUNDUP
NATIONAL WEATHER SERVICE GREEN BAY WI
200 AM CST SUN DEC 21 2014

WIZ005-009-010>012-018-019-210900-
NORTH CENTRAL WISCONSIN

CITY           SKY/WX    TMP DP  RH WIND       PRES   REMARKS
IRONWOOD       CLOUDY    30  27  86 S7        30.04S
MANITOWISH WTR CLOUDY    27  27 100 S8        30.06F FOG
ARBOR VITAE    CLOUDY    29  28  93 S7        30.08S FOG
EAGLE RIVER    LGT SNOW  27  26  98 CALM      30.09S
LAND O LAKES   LGT SNOW  28  27  96 S6        30.09F
RHINELANDER    CLOUDY    26  24  92 S6        30.10S FOG
PHILLIPS       CLOUDY    28  26  95 S7        30.08S FOG
ANTIGO         CLOUDY    26  25  99 S7        30.13S FOG
TOMAHAWK       CLOUDY    27  26  94 CALM      30.11S FOG
MERRILL        CLOUDY    28  27  96 S3        30.12S FOG
$$

WIZ013-073-210900-
NORTHEAST WISCONSIN

CITY           SKY/WX    TMP DP  RH WIND       PRES   REMARKS
IRON MOUNTAIN  CLOUDY    27  23  85 S6        30.15R
MARINETTE      CLOUDY    28  25  86 CALM      30.20R
OCONTO         CLOUDY    28  27  96 CALM      30.20R
$$

WIZ017-030-035>037-045-210900-
CENTRAL WISCONSIN

CITY           SKY/WX    TMP DP  RH WIND       PRES   REMARKS
MEDFORD        CLOUDY    28  26  95 S9        30.09S FOG
WAUSAU         CLOUDY    28  26  92 S7        30.12S FOG
MOSINEE        CLOUDY    28  28 100 SE6       30.14S FOG
MARSHFIELD     CLOUDY    29  26  89 S8        30.12S FOG
WISC RAPIDS    CLOUDY    29  25  85 S5        30.16S FOG
STEVENS POINT  CLOUDY    27  26  93 SE5       30.16R FOG
WAUPACA        CLOUDY    31  28  90 SE3       30.18S FOG
SHAWANO        CLOUDY    31  27  86 CALM      30.19R FOG
CLINTONVILLE   CLOUDY    30  28  93 S5        30.18S FOG
$$

WIZ038-039-048-051-210900-
FOX VALLEY

CITY           SKY/WX    TMP DP  RH WIND       PRES   REMARKS
NWS GREEN BAY  CLOUDY    30  27  88 S6        30.20S FOG
APPLETON       CLOUDY    30  28  93 S6        30.19S FOG
OSHKOSH        CLOUDY    30  26  85 S8        30.19R FOG
FOND DU LAC    CLOUDY    30  26  85 S6        30.20R
$$

WIZ022-050-052-210900-
EAST CENTRAL WISCONSIN

CITY           SKY/WX    TMP DP  RH WIND       PRES   REMARKS
STURGEON BAY   CLOUDY    28  25  86 CALM      30.22R
MANITOWOC      CLOUDY    31  28  89 S3        30.22R
SHEBOYGAN      CLOUDY    30  26  85 S5        30.21R
$$

LMZ563-521-522-541>543-210900-
LAKESHORE

STATION/POSITION TIME  TEMP    WIND        PRES    VSBY  WAVE
                       AIR SEA DIR/SP/G                  HT/PER
                 (UTC) (F)     (DEG/KT/KT) (MB)    (MI)  (FT/S)
SHEBOYGAN LKSHOR 0800   31 34  200/  6/  7 1024.2R
KEWAUNEE LKSHORE 0800   31     200/  4/  6 1022.1R
ALGOMA MARINA    0800          230/  5/  6   N/A
NORTHPORT PIER   0800   29      CALM  /  3 1022.7S
SISTER BAY LKSHO 0700             CALM       N/A
CHAMBERS ISLAND  0800   29      CALM  /  3 1023.0S
MENOMINEE LKSHOR 0800   30     200/  3/  4 1023.4R
$$


USA.gov is the U.S. government's official web portal to all federal, state and local government web resources and services.